Columbia Owens, SC

5:43 PM EST on November 15, 2019 (GMT -0500)
Columbia Owens Downtown

Weather History for KCUB - October, 2019

Change the Weather History Date:

Monday, October 21, 2019

  Actual Average Record
Temperature  
Mean Temperature 69 °F 63 °F  
Max Temperature 78 °F 75 °F 86 °F (2005)
Min Temperature 59 °F 52 °F 41 °F (2008)
Degree Days  
Heating Degree Days 0 4  
Month to date heating degree days 20 39  
Since 1 July heating degree days 20 42  
Cooling Degree Days 4 2  
Month to date cooling degree days 171 81  
Year to date cooling degree days 2802 2228  
Growing Degree Days 18 (Base 50)    
Moisture  
Dew Point 61 °F    
Average Humidity 75    
Maximum Humidity 97    
Minimum Humidity 58    
Precipitation  
Precipitation 0.00 in 0.11 in 0.02 in (2005)
Month to date precipitation 1.41 2.39  
Year to date precipitation 26.50 38.28  
Sea Level Pressure  
Sea Level Pressure 30.02 in    
Wind  
Wind Speed 3 mph (SSE)    
Max Wind Speed 12 mph    
Max Gust Speed 16 mph    
Visibility 10 miles    
Events      
T = Trace of Precipitation, MM = Missing Value Source: NWS Daily Summary

Daily Weather History Graph

Daily Weather History Graph

Search for Another Location

Airport or City:

Astronomy

Oct. 21, 2019 Rise Set
Actual Time 7:33 AM EDT 6:43 PM EDT
Civil Twilight 7:08 AM EDT 7:08 PM EDT
Nautical Twilight 6:39 AM EDT 7:37 PM EDT
Astronomical Twilight 6:10 AM EDT 8:06 PM EDT
Moon 12:02 AM EDT (10/21) 2:41 PM EDT (10/21)
Length of Visible Light 12h 00m
Length of Day
11h 09m
Waning Gibbous, 48% of the Moon is Illuminated
Oct 21
Waning Gibbous
Oct 27
New
Nov 4
First Quarter
Nov 12
Full
Nov 19
Last Quarter

Hourly Weather History & Observations

Time (EDT) Temp. Dew Point Humidity Pressure Visibility Wind Dir Wind Speed Gust Speed Precip Events Conditions
12:53 AM 61.0 °F 59.0 °F 93% 29.97 in 10.0 mi Calm Calm - N/A   Clear
1:53 AM 60.1 °F 57.9 °F 93% 29.99 in 10.0 mi Calm Calm - N/A   Clear
2:53 AM 60.1 °F 57.0 °F 90% 29.99 in 10.0 mi Calm Calm - N/A   Clear
3:53 AM 60.1 °F 57.9 °F 93% 29.99 in 10.0 mi Calm Calm - N/A   Clear
4:53 AM 59.0 °F 57.0 °F 93% 30.00 in 10.0 mi Calm Calm - N/A   Clear
5:53 AM 59.0 °F 57.9 °F 96% 30.00 in 10.0 mi Calm Calm - N/A   Clear
6:53 AM 59.0 °F 57.0 °F 93% 30.01 in 10.0 mi Calm Calm - N/A   Clear
7:53 AM 60.1 °F 57.9 °F 93% 30.04 in 8.0 mi Calm Calm - N/A   Clear
8:53 AM 62.1 °F 60.1 °F 93% 30.06 in 10.0 mi Calm Calm - N/A   Clear
9:27 AM 64.0 °F 60.1 °F 87% 30.07 in 10.0 mi SSE 5.8 mph - N/A   Mostly Cloudy
9:53 AM 66.0 °F 60.1 °F 81% 30.06 in 10.0 mi SSE 5.8 mph - N/A   Mostly Cloudy
10:00 AM 66.9 °F 59.0 °F 76% 30.07 in 10.0 mi Variable 4.6 mph - N/A   Scattered Clouds
10:53 AM 70.0 °F 60.1 °F 71% 30.06 in 10.0 mi SSE 9.2 mph - N/A   Clear
11:53 AM 73.0 °F 61.0 °F 66% 30.07 in 10.0 mi Variable 4.6 mph - N/A   Clear
12:53 PM 75.0 °F 62.1 °F 64% 30.06 in 10.0 mi SSE 8.1 mph - N/A   Scattered Clouds
1:17 PM 77.0 °F 62.1 °F 60% 30.04 in 10.0 mi SSE 6.9 mph - N/A   Mostly Cloudy
1:25 PM 75.9 °F 62.1 °F 62% 30.03 in 10.0 mi SSE 9.2 mph - N/A   Scattered Clouds
1:33 PM 77.0 °F 62.1 °F 60% 30.04 in 10.0 mi South 9.2 mph - N/A   Mostly Cloudy
1:43 PM 77.0 °F 62.1 °F 60% 30.03 in 10.0 mi SSE 5.8 mph - N/A   Partly Cloudy
1:53 PM 77.0 °F 62.1 °F 60% 30.02 in 10.0 mi SSE 5.8 mph - N/A   Partly Cloudy
2:53 PM 78.1 °F 62.1 °F 58% 30.01 in 10.0 mi North - - N/A   Mostly Cloudy
3:53 PM 78.1 °F 62.1 °F 58% 30.00 in 10.0 mi Variable 4.6 mph - N/A   Mostly Cloudy
4:53 PM 78.1 °F 62.1 °F 58% 30.00 in 10.0 mi ESE 6.9 mph - N/A   Partly Cloudy
5:53 PM 75.9 °F 63.0 °F 64% 29.99 in 10.0 mi SE 4.6 mph - N/A   Clear
6:53 PM 73.9 °F 63.0 °F 68% 29.99 in 10.0 mi Calm Calm - N/A   Clear
7:53 PM 73.0 °F 63.0 °F 71% 30.00 in 10.0 mi ESE 3.5 mph - N/A   Overcast
8:53 PM 71.1 °F 63.0 °F 75% 30.01 in 10.0 mi Variable 4.6 mph - N/A   Clear
9:53 PM 70.0 °F 63.0 °F 78% 30.01 in 10.0 mi Variable 3.5 mph - N/A   Clear